This demonstration page uses our WeatherBlox Daily Observations layout. Learn more.

Hourly Observations for March 3, 2019

Temp ( °F °C ) Dew Point ( °F °C ) Humidity (%) Winds ( mph kmh ) Pressure ( in mb ) Visibility ( mi km ) Precip ( " mm )
12:15 am 00:15 Clear 43 6 32 0 66 66 Calm 30.18 1022 10 16.09344 0 0
12:35 am 00:35 Clear 41 5 32 0 70 70 Calm 30.15 1021 10 16.09344 0 0
12:55 am 00:55 Partly Cloudy 41 5 32 0 70 70 Calm 30.18 1022 10 16.09344 0 0
1:15 am 01:15 Partly Cloudy 41 5 32 0 70 70 Calm 30.18 1022 10 16.09344 0 0
1:35 am 01:35 Partly Cloudy 41 5 32 0 70 70 Calm 30.18 1022 10 16.09344 0 0
1:55 am 01:55 Mostly Cloudy 39 4 32 0 75 75 Calm 30.15 1021 10 16.09344 0 0
2:15 am 02:15 Cloudy 41 5 32 0 70 70 Calm 30.15 1021 10 16.09344 0 0
2:35 am 02:35 Cloudy 41 5 32 0 70 70 N 6 9 30.15 1021 10 16.09344 0 0
2:55 am 02:55 Mostly Cloudy 41 5 32 0 70 70 NNW 6 9 30.15 1021 10 16.09344 0 0
3:15 am 03:15 Mostly Cloudy 39 4 32 0 75 75 N 3 6 30.15 1021 10 16.09344 0 0
3:35 am 03:35 Cloudy 41 5 32 0 70 70 N 5 7 30.15 1021 10 16.09344 0 0
3:55 am 03:55 Cloudy 41 5 32 0 70 70 N 7 11 30.15 1021 10 16.09344 0 0
4:15 am 04:15 Cloudy 41 5 32 0 70 70 N 3 6 30.15 1021 10 16.09344 0 0
4:35 am 04:35 Cloudy 41 5 32 0 70 70 NNE 3 6 30.18 1022 10 16.09344 0 0
4:55 am 04:55 Cloudy 41 5 30 -1 66 66 NNE 6 9 30.15 1021 10 16.09344 0 0
5:15 am 05:15 Cloudy 39 4 30 -1 70 70 N 5 7 30.18 1022 10 16.09344 0 0
5:35 am 05:35 Cloudy 39 4 30 -1 70 70 NNE 3 6 30.18 1022 10 16.09344 0 0
5:55 am 05:55 Cloudy 39 4 30 -1 70 70 NE 5 7 30.18 1022 10 16.09344 0 0
6:15 am 06:15 Cloudy 39 4 28 -2 65 65 NE 6 9 30.18 1022 10 16.09344 0 0
6:35 am 06:35 Cloudy 37 3 28 -2 70 70 NNE 3 6 30.18 1022 10 16.09344 0 0
6:55 am 06:55 Cloudy 37 3 28 -2 70 70 Calm 30.18 1022 10 16.09344 0 0
7:15 am 07:15 Cloudy 37 3 28 -2 70 70 Calm 30.21 1023 10 16.09344 0 0
7:35 am 07:35 Cloudy 37 3 28 -2 70 70 NNE 3 6 30.18 1022 10 16.09344 0 0
7:55 am 07:55 Cloudy 37 3 28 -2 70 70 Calm 30.21 1023 10 16.09344 0 0
8:15 am 08:15 Cloudy 37 3 28 -2 70 70 NNE 3 6 30.21 1023 10 16.09344 0 0
8:35 am 08:35 Cloudy 37 3 28 -2 70 70 N 5 7 30.21 1023 10 16.09344 0 0
8:55 am 08:55 Cloudy 37 3 30 -1 75 75 N 8 13 30.21 1023 10 16.09344 0 0
9:15 am 09:15 Cloudy 37 3 30 -1 75 75 NNE 6 9 30.21 1023 10 16.09344 0 0
9:35 am 09:35 Cloudy 37 3 32 0 81 81 Calm 30.21 1023 10 16.09344 0 0
9:55 am 09:55 Cloudy 36 2 32 0 87 87 Calm 30.21 1023 7 11.265408 0 0
10:15 am 10:15 Cloudy 36 2 32 0 87 87 NNE 3 6 30.18 1022 7 11.265408 0 0
10:35 am 10:35 Cloudy 36 2 32 0 87 87 NNE 5 7 30.18 1022 10 16.09344 0 0
10:55 am 10:55 Cloudy 37 3 32 0 81 81 NNE 3 6 30.18 1022 10 16.09344 0 0
11:15 am 11:15 Cloudy 37 3 32 0 81 81 ENE 3 6 30.15 1021 10 16.09344 0 0
11:35 am 11:35 Cloudy 37 3 32 0 81 81 NE 3 6 30.15 1021 10 16.09344 0 0
11:55 am 11:55 Cloudy 37 3 32 0 81 81 NE 5 7 30.15 1021 5 8.04672 0 0
12:15 pm 12:15 Cloudy 37 3 34 1 87 87 NE 7 11 30.12 1020 3 4.828032 0 0
12:35 pm 12:35 Cloudy 36 2 36 2 100 100 NE 7 11 30.12 1020 3 4.828032 0 0
12:55 pm 12:55 Cloudy 36 2 36 2 100 100 ENE 6 9 30.09 1019 4 6.437376 0 0
1:15 pm 13:15 Cloudy 36 2 36 2 100 100 NE 7 11 30.09 1019 2.5 4.02336 0 0
1:35 pm 13:35 Cloudy 36 2 36 2 100 100 NE 6 9 30.06 1018 3 4.828032 0 0
1:55 pm 13:55 Cloudy 36 2 36 2 100 100 Calm 30.06 1018 2 3.218688 0 0
2:15 pm 14:15 Cloudy 34 1 34 1 100 100 ENE 5 7 30.06 1018 1.25 2.01168 0 0
2:35 pm 14:35 Cloudy 34 1 34 1 100 100 NE 5 7 30.03 1017 1.5 2.414016 0 0
2:55 pm 14:55 Cloudy 34 1 34 1 100 100 ENE 6 9 30 1016 1 1.609344 0 0
3:15 pm 15:15 Cloudy 34 1 34 1 100 100 ENE 3 6 30 1016 1 1.609344 0 0
3:35 pm 15:35 Cloudy 34 1 34 1 100 100 ENE 5 7 30 1016 1.5 2.414016 0 0
3:55 pm 15:55 Cloudy 34 1 34 1 100 100 E 6 9 30 1016 1.25 2.01168 0 0
4:15 pm 16:15 Cloudy 32 0 32 0 100 100 E 7 11 29.97 1015 1 1.609344 0 0
4:35 pm 16:35 Cloudy 32 0 32 0 100 100 E 5 7 29.97 1015 1.75 2.816352 0 0
4:55 pm 16:55 Cloudy 32 0 32 0 100 100 E 7 11 29.94 1014 1.75 2.816352 0 0
5:15 pm 17:15 Cloudy 32 0 32 0 100 100 E 6 9 29.94 1014 1.75 2.816352 0 0
5:35 pm 17:35 Cloudy 34 1 34 1 100 100 E 6 9 29.94 1014 1.75 2.816352 0 0
5:55 pm 17:55 Cloudy 34 1 34 1 100 100 ENE 6 9 29.91 1013 4 6.437376 0 0
6:15 pm 18:15 Cloudy 34 1 34 1 100 100 NNE 3 6 29.94 1014 2.5 4.02336 0 0
6:35 pm 18:35 Cloudy 34 1 34 1 100 100 NE 5 7 29.94 1014 2 3.218688 0 0
6:55 pm 18:55 Cloudy 34 1 34 1 100 100 NE 7 11 29.91 1013 2.5 4.02336 0 0
7:15 pm 19:15 Cloudy 32 0 32 0 100 100 NNE 3 6 29.91 1013 3 4.828032 0 0
7:35 pm 19:35 Cloudy 32 0 32 0 100 100 NE 7 11 29.91 1013 2.5 4.02336 0 0
7:55 pm 19:55 Cloudy 32 0 32 0 100 100 ENE 7 11 29.91 1013 2.5 4.02336 0 0
8:15 pm 20:15 Cloudy 32 0 32 0 100 100 NE 6 9 29.88 1012 3 4.828032 0 0
8:35 pm 20:35 Cloudy 32 0 32 0 100 100 ENE 5 7 29.85 1011 3 4.828032 0 0
8:55 pm 20:55 Cloudy 32 0 32 0 100 100 ENE 7 11 29.83 1010 4 6.437376 0 0
9:15 pm 21:15 Cloudy 32 0 32 0 100 100 N 7 11 29.85 1011 4 6.437376 0 0
9:35 pm 21:35 Cloudy 32 0 32 0 100 100 NNE 5 7 29.85 1011 3 4.828032 0 0
9:55 pm 21:55 Cloudy 32 0 32 0 100 100 NE 9 15 29.83 1010 5 8.04672 0 0
10:15 pm 22:15 Cloudy 32 0 32 0 100 100 N 9 15 29.83 1010 5 8.04672 0 0
10:35 pm 22:35 Cloudy 32 0 32 0 100 100 NNE 7 11 29.83 1010 7 11.265408 0 0
10:55 pm 22:55 Cloudy 32 0 32 0 100 100 NNE 8 13 29.83 1010 7 11.265408 0 0
11:15 pm 23:15 Cloudy 32 0 32 0 100 100 N 10 17 29.83 1010 7 11.265408 0 0
11:35 pm 23:35 Cloudy 32 0 32 0 100 100 NNE 7 11 29.8 1009 5 8.04672 0 0
11:55 pm 23:55 Cloudy 32 0 32 0 100 100 N 10 17 29.8 1009 7 11.265408 0 0

Powered by AerisWeather